{"data":{"norad_id":52306,"epoch":"2026-09-20T01:40:07.256352Z","epoch_age_seconds":96738,"freshness":"FRESH","line1":"1 52306U 22041AX  26263.06952843 -.00000014  00000+0  10714-4 0  9993","line2":"2 52306  53.1596 283.3857 0001320  67.3854 292.7288 15.34390686245387","mean_motion":15.34390686,"eccentricity":0.000132,"inclination_deg":53.1596,"raan_deg":283.3857,"arg_perigee_deg":67.3854,"mean_anomaly_deg":292.7288,"bstar":1.0714e-5,"rev_number":24538,"period_min":93.848327752427,"perigee_km":461.82792895207,"apogee_km":463.63391808388,"semimajor_km":6840.867923518,"source":"CELESTRAK","updated_at":"2026-09-20T09:00:40.019346Z"}}